Regional Weather Roundup
Issued by NWS Goodland, KS

Home | Current Version | Previous Version | Graphics & Text | Print | Product List | Glossary On
Versions: 1 2 3 4 5 6 7 8 9 10 11 12 13 14 15 16 17 18 19 20 21 22 23 24 25 26 27 28 29 30 31 32 33 34 35 36 37 38 39 40 41 42 43 44 45 46 47 48 49 50
000
ASUS43 KGLD 111559
RWRGLD

GOODLAND FORECAST AREA HOURLY WEATHER ROUNDUP
NATIONAL WEATHER SERVICE GOODLAND KS
900 AM MST MON DEC 11 2017

...OFFICIAL OBSERVATIONS...

CITY           SKY/WX    TMP DP  RH WIND       PRES   REMARKS
GOODLAND KS    SUNNY     49  10  20 NW18G26   30.27R
HILL CITY KS   MOSUNNY   49  15  25 NW12      30.20S
IMPERIAL NEB   SUNNY     48  12  23 W18G26    30.24R
MCCOOK NEB     CLOUDY    45  14  28 W14       30.22R
AKRON CO       SUNNY     44   3  18 NW18      30.32R
BURLINGTON CO  SUNNY     48   9  20 N12       30.31R
LIMON CO       SUNNY     39   0  19 CALM      30.35R
$$

...UNOFFICIAL OBSERVATIONS...

CITY           SKY/WX    TMP DP  RH WIND       PRES   REMARKS
LENORA KS        N/A     46  32  58 NW8         N/A
NORTON KS      SUNNY     48   9  20 W15       30.19
SHARON SPRINGS   N/A     47  11  23 NW18        N/A
TRENTON NEB      N/A     49  32  52 NW12        N/A
KIT CARSON CO    N/A     45  11  24 CALM        N/A
YUMA CO        FAIR      43   7  22 NW16      30.31R
$$



USA.gov is the U.S. government's official web portal to all federal, state and local government web resources and services.